When you browse on this site, cookies collect data to enhance your experience and personalize the content and advertising you see.
Visit our Privacy Policy to learn more. By continuing to use the site, you agree to this use of cookies and data.
  • In Romania
  • List of Countries
  • For 7 days
  • Water Temperature
  • Weather Map
  • Weather Widgets
  • user-avatar
    Login

    Hourly Weather Coro

    Today, 24 August, Saturday

    Time Temperature Precipitation Wind Pressure Humidity
    00:00 +28°C° 0 mm 6 mps 755 mmHg 78%
    01:00 +28°C° 0 mm 6 mps 755 mmHg 78%
    02:00 +27°C° 0 mm 6 mps 755 mmHg 79%
    03:00 +27°C° 0 mm 5 mps 755 mmHg 79%
    04:00 +27°C° 0 mm 5 mps 755 mmHg 79%
    05:00 +28°C° 0 mm 5 mps 755 mmHg 74%
    06:00 +29°C° 0 mm 5 mps 755 mmHg 68%
    07:00 +30°C° 0 mm 5 mps 756 mmHg 63%
    08:00 +33°C° 0 mm 5 mps 756 mmHg 55%
    09:00 +35°C° 0 mm 5 mps 756 mmHg 48%
    10:00 +37°C° 0 mm 5 mps 756 mmHg 40%
    11:00 +40°C° 0 mm 6 mps 755 mmHg 36%
    12:00 +41°C° 0 mm 7 mps 755 mmHg 33%
    13:00 +44°C° 0 mm 9 mps 754 mmHg 29%
    14:00 +43°C° 0 mm 9 mps 754 mmHg 31%
    15:00 +42°C° 0 mm 9 mps 753 mmHg 33%
    16:00 +42°C° 0 mm 10 mps 753 mmHg 35%
    17:00 +38°C° 0 mm 9 mps 753 mmHg 46%
    18:00 +34°C° 0 mm 8 mps 754 mmHg 56%
    19:00 +32°C° 0 mm 8 mps 754 mmHg 67%
    20:00 +30°C° 0 mm 7 mps 755 mmHg 71%
    21:00 +29°C° 0 mm 7 mps 755 mmHg 76%
    22:00 +28°C° 0 mm 6 mps 756 mmHg 80%
    23:00 +28°C° 0 mm 6 mps 755 mmHg 82%

    Tomorrow, 25 August, Sunday

    Time Temperature Precipitation Wind Pressure Humidity
    00:00 +28°C° 0 mm 6 mps 755 mmHg 84%
    01:00 +27°C° 0 mm 7 mps 755 mmHg 86%
    02:00 +27°C° 0 mm 6 mps 755 mmHg 88%
    03:00 +27°C° 0 mm 6 mps 754 mmHg 90%
    04:00 +27°C° 0 mm 6 mps 754 mmHg 91%
    05:00 +28°C° 0 mm 6 mps 755 mmHg 85%
    06:00 +29°C° 0 mm 6 mps 755 mmHg 79%
    07:00 +30°C° 0 mm 6 mps 755 mmHg 73%
    08:00 +33°C° 0 mm 6 mps 755 mmHg 61%
    09:00 +36°C° 0 mm 6 mps 756 mmHg 49%
    10:00 +39°C° 0 mm 6 mps 756 mmHg 37%
    11:00 +40°C° 0 mm 7 mps 755 mmHg 35%
    12:00 +41°C° 0 mm 8 mps 754 mmHg 32%
    13:00 +43°C° 0 mm 9 mps 754 mmHg 29%
    14:00 +42°C° 0 mm 9 mps 753 mmHg 33%
    15:00 +40°C° 0 mm 10 mps 753 mmHg 38%
    16:00 +39°C° 0 mm 10 mps 753 mmHg 42%
    17:00 +37°C° 0 mm 9 mps 753 mmHg 54%
    18:00 +33°C° 0 mm 8 mps 753 mmHg 65%
    19:00 +31°C° 0 mm 8 mps 754 mmHg 76%
    20:00 +29°C° 0 mm 7 mps 754 mmHg 79%
    21:00 +28°C° 0 mm 7 mps 755 mmHg 81%
    22:00 +28°C° 0 mm 6 mps 756 mmHg 84%
    23:00 +27°C° 0 mm 6 mps 755 mmHg 86%

    Day after tomorrow, 26 August, Monday

    Time Temperature Precipitation Wind Pressure Humidity
    00:00 +27°C° 0 mm 6 mps 755 mmHg 89%
    01:00 +27°C° 0 mm 6 mps 754 mmHg 91%
    02:00 +27°C° 0 mm 6 mps 754 mmHg 92%
    03:00 +27°C° 0 mm 6 mps 754 mmHg 93%
    04:00 +27°C° 0 mm 6 mps 754 mmHg 93%
    05:00 +28°C° 0 mm 6 mps 755 mmHg 88%
    06:00 +29°C° 0 mm 6 mps 755 mmHg 83%
    07:00 +29°C° 0 mm 6 mps 756 mmHg 78%
    08:00 +33°C° 0 mm 6 mps 756 mmHg 66%
    09:00 +35°C° 0 mm 6 mps 756 mmHg 54%
    10:00 +38°C° 0 mm 7 mps 756 mmHg 42%
    11:00 +39°C° 0 mm 8 mps 755 mmHg 38%
    12:00 +40°C° 0 mm 9 mps 755 mmHg 33%
    13:00 +43°C° 0 mm 9 mps 754 mmHg 29%
    14:00 +40°C° 0 mm 10 mps 754 mmHg 34%
    15:00 +39°C° 0 mm 10 mps 753 mmHg 40%
    16:00 +38°C° 0 mm 10 mps 753 mmHg 46%
    17:00 +35°C° 0 mm 9 mps 753 mmHg 57%
    18:00 +32°C° 0 mm 8 mps 754 mmHg 67%
    19:00 +29°C° 0 mm 7 mps 754 mmHg 78%
    20:00 +28°C° 0 mm 7 mps 755 mmHg 81%
    21:00 +28°C° 0 mm 6 mps 755 mmHg 84%
    22:00 +27°C° 0 mm 6 mps 756 mmHg 87%
    23:00 +27°C° 0 mm 6 mps 755 mmHg 89%

    27 August, Tuesday

    Time Temperature Precipitation Wind Pressure Humidity
    00:00 +27°C° 0 mm 6 mps 755 mmHg 91%
    01:00 +27°C° 0 mm 6 mps 755 mmHg 92%
    02:00 +27°C° 0 mm 6 mps 755 mmHg 92%
    03:00 +27°C° 0 mm 5 mps 755 mmHg 92%
    04:00 +27°C° 0 mm 5 mps 755 mmHg 91%
    05:00 +28°C° 0 mm 6 mps 755 mmHg 88%
    06:00 +28°C° 0 mm 6 mps 756 mmHg 85%
    07:00 +29°C° 0 mm 6 mps 756 mmHg 81%
    08:00 +32°C° 0 mm 6 mps 756 mmHg 72%
    09:00 +34°C° 0 mm 6 mps 756 mmHg 63%
    10:00 +35°C° 0 mm 6 mps 756 mmHg 54%
    11:00 +38°C° 0 mm 7 mps 756 mmHg 49%
    12:00 +39°C° 0 mm 8 mps 755 mmHg 44%
    13:00 +40°C° 0 mm 9 mps 754 mmHg 39%
    14:00 +39°C° 0 mm 9 mps 754 mmHg 45%
    15:00 +37°C° 0 mm 9 mps 753 mmHg 50%
    16:00 +35°C° 0 mm 9 mps 753 mmHg 56%
    17:00 +33°C° 0 mm 9 mps 753 mmHg 65%
    18:00 +31°C° 0 mm 8 mps 754 mmHg 73%
    19:00 +29°C° 0 mm 7 mps 754 mmHg 82%
    20:00 +28°C° 0 mm 7 mps 754 mmHg 85%
    21:00 +28°C° 0 mm 6 mps 755 mmHg 88%
    22:00 +27°C° 0 mm 6 mps 755 mmHg 91%
    23:00 +27°C° 0 mm 6 mps 755 mmHg 92%

    28 August, Wednesday

    Time Temperature Precipitation Wind Pressure Humidity
    00:00 +27°C° 0 mm 5 mps 755 mmHg 93%
    01:00 +26°C° 0 mm 5 mps 754 mmHg 94%
    02:00 +26°C° 0 mm 5 mps 754 mmHg 95%
    03:00 +26°C° 0 mm 5 mps 754 mmHg 95%
    04:00 +26°C° 0 mm 5 mps 754 mmHg 95%
    05:00 +27°C° 0 mm 4 mps 755 mmHg 91%
    06:00 +28°C° 0 mm 4 mps 755 mmHg 87%
    07:00 +29°C° 0 mm 4 mps 756 mmHg 82%
    08:00 +32°C° 0 mm 4 mps 756 mmHg 71%
    09:00 +34°C° 0 mm 4 mps 756 mmHg 60%
    10:00 +37°C° 0 mm 4 mps 756 mmHg 49%
    11:00 +39°C° 0 mm 5 mps 755 mmHg 46%
    12:00 +39°C° 0 mm 6 mps 754 mmHg 44%
    13:00 +40°C° 0 mm 7 mps 753 mmHg 41%
    14:00 +38°C° 0.2 mm 8 mps 753 mmHg 51%
    15:00 +35°C° 0.2 mm 8 mps 752 mmHg 60%
    16:00 +34°C° 0.2 mm 8 mps 752 mmHg 70%
    17:00 +32°C° 0.3 mm 8 mps 752 mmHg 76%
    18:00 +30°C° 0.3 mm 7 mps 753 mmHg 82%
    19:00 +29°C° 0.3 mm 7 mps 754 mmHg 89%
    20:00 +28°C° 0 mm 6 mps 754 mmHg 90%
    21:00 +28°C° 0 mm 6 mps 754 mmHg 91%
    22:00 +28°C° 0 mm 5 mps 755 mmHg 93%
    23:00 +28°C° 0 mm 5 mps 754 mmHg 93%

    29 August, Thursday

    Time Temperature Precipitation Wind Pressure Humidity
    00:00 +27°C° 0 mm 4 mps 754 mmHg 94%
    01:00 +27°C° 0 mm 4 mps 753 mmHg 95%
    02:00 +27°C° 0 mm 4 mps 753 mmHg 93%
    03:00 +26°C° 0 mm 4 mps 753 mmHg 92%
    04:00 +26°C° 0 mm 4 mps 753 mmHg 91%
    05:00 +27°C° 0 mm 3 mps 753 mmHg 86%
    06:00 +28°C° 0 mm 3 mps 754 mmHg 80%
    07:00 +29°C° 0 mm 3 mps 754 mmHg 74%
    08:00 +31°C° 0.2 mm 2 mps 754 mmHg 65%
    09:00 +34°C° 0.2 mm 2 mps 754 mmHg 56%
    10:00 +37°C° 0.2 mm 2 mps 755 mmHg 47%
    11:00 +38°C° 0 mm 3 mps 754 mmHg 44%
    12:00 +38°C° 0 mm 3 mps 753 mmHg 42%
    13:00 +40°C° 0 mm 4 mps 752 mmHg 39%
    14:00 +37°C° 0.7 mm 4 mps 752 mmHg 50%
    15:00 +35°C° 0.7 mm 4 mps 752 mmHg 61%
    16:00 +33°C° 0.7 mm 4 mps 751 mmHg 72%
    17:00 +31°C° 2 mm 3 mps 752 mmHg 78%
    18:00 +29°C° 2 mm 3 mps 753 mmHg 85%
    19:00 +28°C° 2 mm 2 mps 753 mmHg 91%
    20:00 +28°C° 0.6 mm 2 mps 754 mmHg 89%
    21:00 +28°C° 0.6 mm 2 mps 754 mmHg 86%
    22:00 +29°C° 0.6 mm 2 mps 755 mmHg 83%
    23:00 +28°C° 0 mm 2 mps 754 mmHg 82%
    Show more